Regional Weather Roundup
Issued by NWS Midland/Odessa, TX

Skip options and go directly to product.
Home | Oldest Version | Previous Version | Current Version | All | Text Only | Save Text | Print | Product List | Glossary On

Skip product version selection by date and time.   
947
ASUS44 KMAF 282010
RWRMAF
MIDLAND AREA WEATHER ROUNDUP
NATIONAL WEATHER SERVICE MIDLAND TX
300 PM CDT THU MAY 28 2015

...IN SOUTHWEST TEXAS AND SOUTHEAST NEW MEXICO...

CITY           SKY/WX    TMP DP  RH WIND       PRES   REMARKS
ALPINE         MOSUNNY   88  48  25 S21G32    30.06F
ANDREWS        LGT RAIN  73  67  83 S10       29.98F
ARTESIA        SUNNY     86  61  42 SE13      29.93F
BIG SPRING     SUNNY     86  62  43 SE18      29.97S
CARLSBAD       SUNNY     88  60  38 SE8       29.91F
DRYDEN           N/A     90  66  45 E12G20    29.91F
FORT STOCKTON  PTSUNNY   84  53  34 S9        29.95S
GUAD PASS      MOSUNNY   88  38  17 W24G31    30.07F
HOBBS          MOSUNNY   77  68  73 SE10      29.99F
MARFA          MOSUNNY   84  54  34 S18G28    30.06F
MIDLAND AIRPK  PTSUNNY   85  62  45 S14G22    29.96F
MIDLAND INTL   PTSUNNY   85  62  46 S16       29.96F
ODESSA         PTSUNNY   84  59  42 SW15      29.97F
PECOS          TSTM      69  63  81 CALM      29.92S
PRESIDIO       FAIR      93  52  25 S8        29.92F
SEMINOLE       CLOUDY    71  65  82 S8        29.97R
SNYDER         CLOUDY    80  67  64 S6        30.01R
WINK           CLOUDY    77  66  68 SE17      29.90F
$$
...OTHER STATIONS IN TEXAS...

CITY           SKY/WX    TMP DP  RH WIND       PRES   REMARKS
ABILENE        PTSUNNY   85  68  56 SE21      29.93F
AMARILLO       CLOUDY    64  59  83 E12       30.03F
AUSTIN         LGT RAIN  78  74  87 CALM      30.01F
BROWNSVILLE    MOSUNNY   88  73  61 SE15G24   29.98F
CORPUS CHRISTI CLOUDY    85  74  69 SE15      29.99F
DALLAS FTW     PTSUNNY   86  69  56 S15       29.98F
DEL RIO        PTSUNNY   87  72  60 SE15      29.91F
EL PASO        MOSUNNY   90  18   7 VRB3      29.98F
HOUSTON INT    PTSUNNY   86  74  67 SE13      30.03F
LUBBOCK        CLOUDY    57  55  93 E17G29    30.00F THUNDER
SAN ANGELO     MOSUNNY   85  68  56 SE16G22   29.96F
SAN ANTONIO    MOSUNNY   87  73  62 SE15      29.99F
WACO           MOSUNNY   86  72  62 SE15      30.01F
WICHITA FALLS  NOT AVBL
$$
...OTHER LOCATIONS IN NEW MEXICO...

CITY           SKY/WX    TMP DP  RH WIND       PRES   REMARKS
ALAMAGORDO     SUNNY     90  19   7 W8G18     30.00F
ALBUQUERQUE    MOSUNNY   80  27  14 W9        30.08F
CANNON AFB     NOT AVBL
CLOVIS         PTSUNNY   73  63  68 SE17        N/A
HOLLOMAN AFB   MOSUNNY   88  17   7 NW14G24   29.98F
ROSWELL        SUNNY     86  58  38 SE9       29.93F
RUIDOSO        SUNNY     77  19  11 S12G22    30.16F
SANTA FE       SUNNY     78  18  10 W15G33    30.11F
TRUTH OR CONSE SUNNY     87  21   9 NE14G20   30.02F
TUCUMCARI      MOSUNNY   84  54  35 SW14G22   29.94F
$$

USA.gov is the U.S. government's official web portal to all federal, state and local government web resources and services.